DW8343 Weather Reports


time (UTC)temp
C
wind
direction
speed
KPH
gust
KPH
rain 1hr
cm
rain 24hr
cm
rain mn
cm
humidity
%
barometer
mb
20260904050819 27 176 3.2 9.7 0.00 0.00 0.00 72 1014.2
20260904050316 27 87 3.2 3.2 0.00 0.00 0.00 72 1014.4
20260904045810 27 273 1.6 4.8 0.00 0.00 0.00 72 1014.3
20260904045307 27 224 0.0 9.7 0.00 0.00 0.00 72 1014.4
20260904044800 27 345 0.0 6.4 0.00 0.00 0.00 72 1014.2
20260904044257 27 186 1.6 6.4 0.00 0.00 0.00 71 1014.3
20260904043752 27 165 1.6 9.7 0.00 0.00 0.00 71 1014.4
20260904043249 27 282 1.6 4.8 0.00 0.00 0.00 71 1014.5
20260904042743 28 39 1.6 4.8 0.00 0.00 0.00 71 1014.4
20260904042240 28 34 4.8 6.4 0.00 0.00 0.00 70 1014.5
20260904041739 28 69 3.2 6.4 0.00 0.00 0.00 70 1014.5
20260904041236 28 64 1.6 9.7 0.00 0.00 0.00 70 1014.5
20260904040731 28 29 0.0 4.8 0.00 0.00 0.00 69 1014.5
20260904040227 28 210 1.6 6.4 0.00 0.00 0.00 69 1014.5
20260904035723 28 36 4.8 14.5 0.00 0.00 0.00 69 1014.5
20260904035218 28 16 1.6 4.8 0.00 0.00 0.00 68 1014.7
20260904034717 28 259 3.2 4.8 0.00 0.00 0.00 68 1014.6
20260904034213 28 78 0.0 4.8 0.00 0.00 0.00 68 1014.8
20260904033708 28 313 1.6 4.8 0.00 0.00 0.00 67 1014.5
20260904033205 28 100 3.2 4.8 0.00 0.00 0.00 67 1014.5
20260904032701 29 313 1.6 11.3 0.00 0.00 0.00 66 1014.7
20260904032159 29 201 0.0 4.8 0.00 0.00 0.00 66 1014.3
20260904031654 29 116 4.8 4.8 0.00 0.00 0.00 66 1014.6
20260904031149 29 39 1.6 3.2 0.00 0.00 0.00 66 1014.6
20260904030645 29 306 4.8 6.4 0.00 0.00 0.00 65 1014.4
20260904030140 29 76 3.2 3.2 0.00 0.00 0.00 65 1014.4
20260904025636 29 2 1.6 6.4 0.00 0.00 0.00 65 1014.4
20260904025131 29 40 1.6 3.2 0.00 0.00 0.00 65 1014.2
20260904024626 30 75 4.8 6.4 0.00 0.00 0.00 64 1014.5
20260904024122 30 239 1.6 11.3 0.00 0.00 0.00 64 1014.1
20260904023617 30 280 1.6 3.2 0.00 0.00 0.00 64 1014.1
20260904023108 30 27 3.2 9.7 0.00 0.00 0.00 64 1014.0
20260904022608 30 252 1.6 4.8 0.00 0.00 0.00 63 1014.0
20260904022105 30 290 0.0 6.4 0.00 0.00 0.00 63 1013.9
20260904021600 30 148 3.2 11.3 0.00 0.00 0.00 62 1013.8
20260904021055 30 116 0.0 9.7 0.00 0.00 0.00 62 1013.7
20260904020550 30 279 3.2 9.7 0.00 0.00 0.00 61 1013.5
20260904020044 30 141 3.2 16.1 0.00 0.00 0.00 61 1013.7
20260904015539 30 241 4.8 9.7 0.00 0.00 0.00 60 1013.7
20260904015038 30 168 1.6 4.8 0.00 0.00 0.00 60 1013.5
20260904014532 30 96 3.2 6.4 0.00 0.00 0.00 60 1013.4
20260904014028 30 47 3.2 6.4 0.00 0.00 0.00 60 1013.2
20260904013524 31 149 3.2 6.4 0.00 0.00 0.00 59 1013.4
20260904013020 31 85 4.8 9.7 0.00 0.00 0.00 59 1013.3
20260904012515 31 228 8.0 11.3 0.00 0.00 0.00 59 1013.3
20260904012015 31 248 3.2 11.3 0.00 0.00 0.00 59 1013.2
20260904011509 31 90 3.2 4.8 0.00 0.00 0.00 59 1012.8
20260904011004 31 59 1.6 11.3 0.00 0.00 0.00 59 1012.8
20260904010500 31 258 4.8 6.4 0.00 0.00 0.00 58 1012.7
20260904005955 31 38 3.2 11.3 0.00 0.00 0.00 58 1012.8
20260904005450 31 5 6.4 12.9 0.00 0.00 0.00 57 1012.6
20260904004945 32 312 8.0 14.5 0.00 0.00 0.00 56 1012.4
20260904004442 32 158 1.6 6.4 0.00 0.00 0.00 56 1012.5
20260904003941 32 76 6.4 9.7 0.00 0.00 0.00 56 1012.4
20260904003438 32 7 1.6 11.3 0.00 0.00 0.00 55 1012.6
20260904002932 32 173 3.2 11.3 0.00 0.00 0.00 55 1012.5
20260904002429 32 66 3.2 12.9 0.00 0.00 0.00 54 1012.3
20260904001927 32 10 6.4 16.1 0.00 0.00 0.00 55 1012.1
20260904001423 32 287 1.6 11.3 0.00 0.00 0.00 55 1012.4
20260904000918 32 305 3.2 9.7 0.00 0.00 0.00 54 1012.5
20260904000418 32 232 3.2 9.7 0.00 0.00 0.00 54 1012.5
20260903235913 32 59 4.8 9.7 0.00 0.00 0.00 54 1012.3
20260903235409 33 63 8.0 14.5 0.00 0.00 0.00 53 1012.6
20260903234908 33 87 1.6 4.8 0.00 0.00 0.00 53 1012.5
20260903234404 33 155 3.2 11.3 0.00 0.00 0.00 53 1012.3
20260903233900 33 43 6.4 11.3 0.00 0.00 0.00 53 1012.3
20260903233356 33 243 3.2 12.9 0.00 0.00 0.00 53 1012.3
20260903232855 33 275 3.2 14.5 0.00 0.00 0.00 52 1012.3
20260903232351 33 118 4.8 9.7 0.00 0.00 0.00 52 1012.3
20260903231850 33 44 3.2 11.3 0.00 0.00 0.00 52 1012.1
20260903231345 33 260 1.6 11.3 0.00 0.00 0.00 52 1012.2
20260903230841 33 270 3.2 11.3 0.00 0.00 0.00 52 1012.0
20260903230336 33 143 4.8 20.9 0.00 0.00 0.00 52 1012.0
20260903225833 33 350 3.2 17.7 0.00 0.00 0.00 51 1011.9
20260903225328 34 91 9.7 16.1 0.00 0.00 0.00 51 1012.1
20260903224824 34 36 4.8 12.9 0.00 0.00 0.00 52 1012.1
20260903224320 34 26 3.2 6.4 0.00 0.00 0.00 50 1012.1
20260903223816 34 12 1.6 4.8 0.00 0.00 0.00 50 1012.0
20260903223314 34 102 1.6 9.7 0.00 0.00 0.00 50 1011.9
20260903222809 35 138 1.6 9.7 0.00 0.00 0.00 49 1012.1
20260903222308 35 63 0.0 4.8 0.00 0.00 0.00 49 1012.1
20260903221803 35 240 6.4 9.7 0.00 0.00 0.00 48 1012.1
20260903221303 35 49 6.4 11.3 0.00 0.00 0.00 49 1012.0
20260903220800 35 45 1.6 4.8 0.00 0.00 0.00 48 1012.1
20260903220255 35 308 3.2 12.9 0.00 0.00 0.00 49 1012.2
20260903215753 35 51 1.6 9.7 0.00 0.00 0.00 50 1012.3
20260903215250 34 277 3.2 9.7 0.00 0.00 0.00 49 1012.4
20260903214748 35 21 6.4 17.7 0.00 0.00 0.00 49 1012.5
20260903214244 36 223 4.8 11.3 0.00 0.00 0.00 46 1012.3
20260903213738 35 22 3.2 6.4 0.00 0.00 0.00 48 1012.2
20260903213234 35 53 3.2 11.3 0.00 0.00 0.00 49 1012.3
20260903212729 35 311 1.6 9.7 0.00 0.00 0.00 48 1012.6
20260903212226 35 51 3.2 16.1 0.00 0.00 0.00 48 1012.3
20260903211719 35 250 6.4 9.7 0.00 0.00 0.00 48 1012.5
20260903211216 35 42 3.2 11.3 0.00 0.00 0.00 48 1012.4
20260903210712 36 282 3.2 4.8 0.00 0.00 0.00 46 1012.5
20260903210207 35 44 9.7 17.7 0.00 0.00 0.00 47 1012.4
20260903205707 35 17 3.2 6.4 0.00 0.00 0.00 47 1012.6
20260903205206 36 42 3.2 12.9 0.00 0.00 0.00 48 1012.7
20260903204702 35 136 3.2 11.3 0.00 0.00 0.00 47 1012.7
20260903204158 36 65 8.0 17.7 0.00 0.00 0.00 48 1013.0
20260903203653 36 25 3.2 11.3 0.00 0.00 0.00 48 1012.7
20260903203148 35 234 1.6 11.3 0.00 0.00 0.00 50 1012.7
20260903202643 36 78 6.4 9.7 0.00 0.00 0.00 47 1013.0
20260903202138 35 186 3.2 11.3 0.00 0.00 0.00 48 1013.0
20260903201632 36 11 4.8 12.9 0.00 0.00 0.00 47 1013.2
20260903201132 36 46 6.4 16.1 0.00 0.00 0.00 49 1013.1
20260903200628 36 338 1.6 4.8 0.00 0.00 0.00 49 1013.2
20260903200122 35 314 1.6 6.4 0.00 0.00 0.00 48 1013.2
20260903195618 36 67 3.2 11.3 0.00 0.00 0.00 47 1013.3
20260903195113 36 344 3.2 9.7 0.00 0.00 0.00 47 1013.2
20260903194608 36 8 1.6 9.7 0.00 0.00 0.00 45 1013.2
20260903194103 36 270 4.8 9.7 0.00 0.00 0.00 45 1013.2
20260903193559 36 97 1.6 9.7 0.00 0.00 0.00 46 1013.3
20260903193054 36 253 3.2 4.8 0.00 0.00 0.00 45 1013.3
20260903192551 35 317 1.6 6.4 0.00 0.00 0.00 47 1013.4
20260903192046 36 54 1.6 6.4 0.00 0.00 0.00 49 1013.5
20260903191537 35 286 3.2 14.5 0.00 0.00 0.00 50 1013.4
20260903191037 35 11 4.8 9.7 0.00 0.00 0.00 48 1013.5
20260903190536 35 40 4.8 9.7 0.00 0.00 0.00 49 1013.7
20260903190030 36 71 3.2 6.4 0.00 0.00 0.00 48 1013.7
20260903185526 35 254 3.2 6.4 0.00 0.00 0.00 48 1013.8
20260903185021 35 353 4.8 6.4 0.00 0.00 0.00 50 1013.9
20260903184518 35 0 3.2 11.3 0.00 0.00 0.00 49 1014.0
20260903184017 34 227 4.8 11.3 0.00 0.00 0.00 50 1014.2
20260903183516 34 227 4.8 11.3 0.00 0.00 0.00 50 1014.2
20260903183012 34 14 1.6 9.7 0.00 0.00 0.00 53 1014.2
20260903182510 34 256 1.6 6.4 0.00 0.00 0.00 54 1014.4
20260903182007 35 269 3.2 11.3 0.00 0.00 0.00 49 1014.3
20260903181500 34 227 1.6 9.7 0.00 0.00 0.00 52 1014.4
20260903180959 34 25 4.8 6.4 0.00 0.00 0.00 52 1014.5
20260903180455 33 113 6.4 11.3 0.00 0.00 0.00 52 1014.5
20260903175954 33 55 4.8 12.9 0.00 0.00 0.00 53 1014.5
20260903175448 34 276 3.2 11.3 0.00 0.00 0.00 53 1014.5
20260903174947 33 29 3.2 9.7 0.00 0.00 0.00 54 1014.7
20260903174443 33 115 3.2 9.7 0.00 0.00 0.00 54 1014.7
20260903173942 33 44 6.4 12.9 0.00 0.00 0.00 56 1014.8
20260903173438 33 232 1.6 9.7 0.00 0.00 0.00 55 1014.9
20260903172933 33 71 3.2 14.5 0.00 0.00 0.00 54 1015.0
20260903172428 33 69 4.8 6.4 0.00 0.00 0.00 55 1015.0
20260903171924 33 60 3.2 4.8 0.00 0.00 0.00 55 1014.9
20260903171419 32 223 4.8 6.4 0.00 0.00 0.00 55 1014.9
20260903170919 32 351 1.6 11.3 0.00 0.00 0.00 58 1015.1
20260903170413 33 225 8.0 11.3 0.00 0.00 0.00 55 1015.2
20260903165912 32 75 3.2 11.3 0.00 0.00 0.00 59 1015.2
20260903165407 32 72 3.2 6.4 0.00 0.00 0.00 57 1015.2
20260903164902 33 202 3.2 6.4 0.00 0.00 0.00 56 1015.3
20260903164402 32 342 1.6 4.8 0.00 0.00 0.00 57 1015.3
20260903163901 31 336 1.6 11.3 0.00 0.00 0.00 60 1015.3
20260903163358 32 221 1.6 4.8 0.00 0.00 0.00 58 1015.4
20260903162853 32 271 1.6 3.2 0.00 0.00 0.00 58 1015.5
20260903162350 32 189 1.6 11.3 0.00 0.00 0.00 60 1015.6
20260903161845 31 275 1.6 6.4 0.00 0.00 0.00 60 1015.3
20260903161340 31 332 3.2 6.4 0.00 0.00 0.00 61 1015.5
20260903160836 31 46 1.6 6.4 0.00 0.00 0.00 63 1015.4
20260903160335 30 22 4.8 9.7 0.00 0.00 0.00 64 1015.4
20260903155833 31 274 3.2 6.4 0.00 0.00 0.00 62 1015.3
20260903155329 30 35 3.2 9.7 0.00 0.00 0.00 64 1015.5
20260903154824 30 294 3.2 4.8 0.00 0.00 0.00 65 1015.4
20260903154320 30 53 3.2 12.9 0.00 0.00 0.00 66 1015.4
20260903153816 30 185 3.2 9.7 0.00 0.00 0.00 66 1015.3
20260903153311 29 225 1.6 9.7 0.00 0.00 0.00 66 1015.5
20260903152809 29 42 4.8 9.7 0.00 0.00 0.00 68 1015.5
20260903152306 29 34 3.2 6.4 0.00 0.00 0.00 68 1015.6
20260903151803 28 60 8.0 12.9 0.00 0.00 0.00 68 1015.7
20260903151254 29 241 1.6 6.4 0.00 0.00 0.00 68 1015.8
20260903150753 30 240 3.2 4.8 0.00 0.00 0.00 66 1015.6
20260903150248 28 69 3.2 4.8 0.00 0.00 0.00 69 1015.8
20260903145744 28 309 0.0 4.8 0.00 0.00 0.00 70 1015.8
20260903145239 28 195 3.2 14.5 0.00 0.00 0.00 70 1015.9
20260903144737 28 277 3.2 6.4 0.00 0.00 0.00 70 1016.1
20260903144233 28 32 3.2 11.3 0.00 0.00 0.00 71 1015.8
20260903143729 27 59 1.6 12.9 0.00 0.00 0.00 72 1016.2
20260903143225 27 171 1.6 6.4 0.00 0.00 0.00 73 1016.1
20260903142720 27 287 8.0 16.1 0.00 0.00 0.00 73 1016.1
20260903142217 27 102 8.0 12.9 0.00 0.00 0.00 73 1016.2
20260903141712 27 325 6.4 17.7 0.00 0.00 0.00 74 1016.2
20260903141208 27 34 1.6 6.4 0.00 0.00 0.00 73 1016.2
20260903140703 27 262 6.4 9.7 0.00 0.00 0.00 75 1016.4
20260903140158 26 270 6.4 11.3 0.00 0.00 0.00 75 1016.5
20260903135653 26 14 3.2 11.3 0.00 0.00 0.00 76 1016.5
20260903135148 26 250 4.8 12.9 0.00 0.00 0.00 75 1016.5
20260903134646 26 66 3.2 6.4 0.00 0.00 0.00 75 1016.5
20260903134137 26 84 1.6 9.7 0.00 0.00 0.00 76 1016.2
20260903133635 26 224 3.2 11.3 0.00 0.00 0.00 76 1016.3
20260903133130 26 296 1.6 9.7 0.00 0.00 0.00 76 1016.6
20260903132624 26 188 3.2 3.2 0.00 0.00 0.00 76 1016.4
20260903132120 26 128 0.0 4.8 0.00 0.00 0.00 77 1016.3
20260903131619 25 124 3.2 6.4 0.00 0.00 0.00 78 1016.2
20260903131118 25 134 0.0 4.8 0.00 0.00 0.00 79 1016.2
20260903130616 25 258 0.0 4.8 0.00 0.00 0.00 79 1016.3
20260903130109 25 272 0.0 9.7 0.00 0.00 0.00 79 1016.1
20260903125607 25 198 3.2 6.4 0.00 0.00 0.00 79 1015.9
20260903125102 25 241 1.6 9.7 0.00 0.00 0.00 79 1016.1
20260903124556 25 282 1.6 6.4 0.00 0.00 0.00 79 1016.2
20260903124057 25 249 1.6 6.4 0.00 0.00 0.00 79 1015.9
20260903123556 25 169 4.8 6.4 0.00 0.00 0.00 79 1015.8
20260903123054 25 305 4.8 6.4 0.00 0.00 0.00 79 1015.8
20260903122549 25 21 3.2 4.8 0.00 0.00 0.00 79 1015.8
20260903122048 25 110 3.2 9.7 0.00 0.00 0.00 79 1015.6
20260903121543 25 49 3.2 3.2 0.00 0.00 0.00 79 1015.7
20260903121039 25 263 3.2 4.8 0.00 0.00 0.00 78 1015.4
20260903120538 25 204 4.8 4.8 0.00 0.00 0.00 78 1015.6
20260903120033 25 343 0.0 4.8 0.00 0.00 0.00 78 1015.3
20260903115531 25 243 3.2 9.7 0.00 0.00 0.00 78 1015.4
20260903115026 25 224 4.8 9.7 0.00 0.00 0.00 78 1015.5
20260903114521 25 286 0.0 1.6 0.00 0.00 0.00 78 1015.4
20260903114017 25 240 1.6 3.2 0.00 0.00 0.00 77 1015.3
20260903113512 25 193 0.0 4.8 0.00 0.00 0.00 77 1015.2
20260903113009 25 337 1.6 4.8 0.00 0.00 0.00 76 1015.1
20260903112504 25 135 4.8 9.7 0.00 0.00 0.00 76 1015.1
20260903112003 25 306 3.2 6.4 0.00 0.00 0.00 76 1015.3
20260903111457 25 276 1.6 9.7 0.00 0.00 0.00 76 1015.1
20260903110954 25 77 3.2 6.4 0.00 0.00 0.00 76 1015.2
20260903110449 25 270 0.0 3.2 0.00 0.00 0.00 76 1015.1
20260903105943 25 240 0.0 3.2 0.00 0.00 0.00 76 1015.1
20260903105439 25 207 0.0 4.8 0.00 0.00 0.00 75 1015.0
20260903104938 25 270 6.4 12.9 0.00 0.00 0.00 75 1015.2
20260903104438 25 233 1.6 3.2 0.00 0.00 0.00 75 1015.2
20260903103935 26 260 1.6 6.4 0.00 0.00 0.00 75 1015.0
20260903103430 26 261 1.6 3.2 0.00 0.00 0.00 74 1015.0
20260903102926 26 291 3.2 4.8 0.00 0.00 0.00 74 1014.9
20260903102421 26 264 1.6 4.8 0.00 0.00 0.00 74 1015.0
20260903101920 26 152 3.2 6.4 0.00 0.00 0.00 73 1015.0
20260903101415 26 113 3.2 4.8 0.00 0.00 0.00 73 1015.1
20260903100910 26 60 3.2 6.4 0.00 0.00 0.00 73 1015.1
20260903100405 26 43 1.6 9.7 0.00 0.00 0.00 73 1015.1
20260903095902 26 111 1.6 3.2 0.00 0.00 0.00 73 1015.1
20260903095356 26 42 4.8 9.7 0.00 0.00 0.00 72 1015.0
20260903094851 26 279 3.2 3.2 0.00 0.00 0.00 72 1014.9
20260903094346 26 298 0.0 4.8 0.00 0.00 0.00 72 1014.9
20260903093842 26 291 1.6 3.2 0.00 0.00 0.00 72 1015.0
20260903093337 26 351 1.6 1.6 0.00 0.00 0.00 71 1015.0
20260903092832 26 181 1.6 4.8 0.00 0.00 0.00 71 1015.1
20260903092326 27 263 4.8 6.4 0.00 0.00 0.00 70 1015.1
20260903091825 27 251 3.2 9.7 0.00 0.00 0.00 70 1014.9
20260903091319 27 86 4.8 11.3 0.00 0.00 0.00 69 1014.9
20260903090815 27 48 3.2 4.8 0.00 0.00 0.00 69 1015.0
20260903090315 27 272 4.8 6.4 0.00 0.00 0.00 69 1015.2
20260903085813 27 98 1.6 6.4 0.00 0.00 0.00 68 1015.1
20260903085308 27 161 3.2 4.8 0.00 0.00 0.00 68 1015.1
20260903084806 27 249 1.6 6.4 0.00 0.00 0.00 68 1015.0
20260903084300 27 48 1.6 11.3 0.00 0.00 0.00 68 1015.1
20260903083755 27 201 0.0 3.2 0.00 0.00 0.00 68 1015.1
20260903083250 27 234 1.6 11.3 0.00 0.00 0.00 67 1015.0
20260903082749 27 69 1.6 4.8 0.00 0.00 0.00 67 1015.2
20260903082245 27 50 4.8 11.3 0.00 0.00 0.00 67 1015.1
20260903081745 27 25 6.4 9.7 0.00 0.00 0.00 66 1015.3
20260903081241 27 169 1.6 4.8 0.00 0.00 0.00 66 1015.2
20260903080737 27 75 1.6 3.2 0.00 0.00 0.00 66 1015.1
20260903080234 27 174 3.2 3.2 0.00 0.00 0.00 66 1015.0
20260903075734 28 289 0.0 4.8 0.00 0.00 0.00 65 1014.8
20260903075229 28 248 1.6 4.8 0.00 0.00 0.00 65 1015.0
20260903074728 28 28 3.2 6.4 0.00 0.00 0.00 65 1015.1
20260903074223 28 232 1.6 4.8 0.00 0.00 0.00 64 1014.9
20260903073718 28 91 3.2 6.4 0.00 0.00 0.00 64 1015.1
20260903073213 28 232 1.6 1.6 0.00 0.00 0.00 64 1015.1
20260903072709 28 136 1.6 1.6 0.00 0.00 0.00 63 1015.0
20260903072206 28 244 3.2 6.4 0.00 0.00 0.00 63 1015.1
20260903071702 28 159 1.6 4.8 0.00 0.00 0.00 63 1015.0
20260903071157 28 242 3.2 4.8 0.00 0.00 0.00 63 1015.1
20260903070656 28 48 0.0 1.6 0.00 0.00 0.00 62 1015.2
20260903070152 28 59 3.2 4.8 0.00 0.00 0.00 62 1015.1
20260903065647 28 71 1.6 3.2 0.00 0.00 0.00 62 1015.0
20260903065147 28 135 0.0 6.4 0.00 0.00 0.00 61 1015.1
20260903064646 29 91 1.6 4.8 0.00 0.00 0.00 61 1014.9
20260903064141 29 214 4.8 11.3 0.00 0.00 0.00 60 1015.1
20260903063638 29 354 0.0 11.3 0.00 0.00 0.00 59 1015.1
20260903063138 29 245 3.2 9.7 0.00 0.00 0.00 59 1014.9
20260903062633 29 43 1.6 4.8 0.00 0.00 0.00 58 1015.0
20260903062129 30 354 1.6 16.1 0.00 0.00 0.00 58 1014.9
20260903061624 30 64 3.2 4.8 0.00 0.00 0.00 58 1015.0
20260903061123 30 137 3.2 4.8 0.00 0.00 0.00 58 1015.1
20260903060618 30 153 4.8 9.7 0.00 0.00 0.00 57 1015.0
20260903060114 30 46 1.6 12.9 0.00 0.00 0.00 57 1015.1
20260903055611 30 325 1.6 11.3 0.00 0.00 0.00 57 1014.8
20260903055109 30 139 1.6 4.8 0.00 0.00 0.00 57 1014.9
20260903054604 30 73 3.2 3.2 0.00 0.00 0.00 57 1015.0
20260903054100 30 104 3.2 9.7 0.00 0.00 0.00 57 1014.9
20260903053556 30 194 1.6 9.7 0.00 0.00 0.00 56 1014.9
20260903053052 30 61 3.2 9.7 0.00 0.00 0.00 56 1015.0
20260903052547 30 231 6.4 14.5 0.00 0.00 0.00 55 1014.8
20260903052043 30 271 3.2 6.4 0.00 0.00 0.00 54 1014.9
20260903051542 30 346 6.4 6.4 0.00 0.00 0.00 54 1014.8